Weather History for Big Piney, WY

Change the Weather History Date:

Sunday, January 13, 2013

  Actual Average Record
Temperature  
Mean Temperature -15 °F 11 °F  
Max Temperature -1 °F 26 °F 42 °F (1994)
Min Temperature -30 °F -4 °F -30 °F (2013)
Degree Days  
Heating Degree Days 80 54  
Month to date heating degree days 800 702  
Since 1 July heating degree days 4522 5141  
Cooling Degree Days 0 0  
Month to date cooling degree days 0 0  
Year to date cooling degree days 0 0  
Moisture  
Dew Point -18 °F    
Average Humidity 77    
Maximum Humidity 89    
Minimum Humidity 65    
Precipitation  
Precipitation T in 0.01 in 0.40 in (1988)
Month to date precipitation 0.07 0.14  
Year to date precipitation 0.07 0.14  
Sea Level Pressure  
Sea Level Pressure 30.21 in    
Wind  
Wind Speed 3 mph (ENE)    
Max Wind Speed 12 mph    
Max Gust Speed 13 mph    
Visibility 7 miles    
Events Snow    
T = Trace of Precipitation, MM = Missing Value Source: NWS Daily Summary

Daily Weather History Graph

Daily Weather History Graph

Search for Another Location

Airport:

Trip Planner

Search our weather history database for the weather conditions in past years. The results will help you decide how hot, cold, wet, or windy it might be!

Date:

Astronomy

Jan. 13, 2013 Rise Set
Actual Time 7:48 AM MST 5:10 PM MST
Civil Twilight 7:17 AM MST 5:41 PM MST
Nautical Twilight 6:42 AM MST 6:16 PM MST
Astronomical Twilight 6:08 AM MST 6:50 PM MST
Moon 8:45 AM MST (1/13) 7:57 PM MST (1/13)
Length of Visible Light 10h 24m
Length of Day
9h 22m
Waxing Crescent, 5% of the Moon is Illuminated
Jan 13
Waxing Crescent
Jan 18
First Quarter
Jan 26
Full
Feb 3
Last Quarter
Feb 10
New

Hourly Weather History & Observations

Time (MST) Temp. Windchill Dew Point Humidity Pressure Visibility Wind Dir Wind Speed Gust Speed Precip Events Conditions
12:53 AM -13.0 °F - -18.9 °F 75% 30.23 in 3.0 mi Calm Calm - 0.00 in   Haze
1:14 AM -13.0 °F - -18.4 °F 77% 29.87 in 6.0 mi Calm Calm - N/A   Haze
1:53 AM -14.1 °F - -18.0 °F 82% 30.24 in 9.0 mi Calm Calm - N/A   Overcast
2:53 AM -11.9 °F -21.5 °F -17.0 °F 78% 30.23 in 3.0 mi East 3.5 mph - 0.00 in Snow Light Snow
3:14 AM -11.2 °F - -18.4 °F 70% 29.88 in 2.5 mi Calm Calm - 0.00 in Snow Light Snow
3:29 AM -13.0 °F - -18.4 °F 77% 29.87 in 3.0 mi Calm Calm - 0.00 in Snow Light Snow
3:53 AM -13.0 °F - -17.0 °F 82% 30.24 in 4.0 mi Calm Calm - 0.00 in Snow Light Snow
4:53 AM -14.8 °F -24.8 °F -18.4 °F 84% 29.85 in 10.0 mi NW 3.5 mph - N/A   Overcast
5:53 AM -11.0 °F - -16.1 °F 78% 30.31 in 4.0 mi Calm Calm - 0.00 in   Haze
6:53 AM -14.1 °F - -18.9 °F 79% 30.35 in 4.0 mi Calm Calm - N/A   Haze
7:53 AM -14.1 °F -26.3 °F -18.9 °F 79% 30.38 in 4.0 mi NNW 4.6 mph - N/A   Haze
8:22 AM -13.0 °F -25.1 °F -16.6 °F 84% 29.92 in 2.5 mi NNW 4.6 mph - N/A   Overcast
8:44 AM -11.2 °F -24.8 °F -16.6 °F 77% 29.93 in 1.5 mi ENE 5.8 mph - N/A   Haze
8:53 AM -14.1 °F -28.3 °F -18.9 °F 79% 30.38 in 1.5 mi ENE 5.8 mph - N/A   Haze
9:17 AM -13.0 °F -25.1 °F -18.4 °F 77% 29.93 in 3.0 mi ENE 4.6 mph - N/A   Haze
9:33 AM -11.2 °F -20.6 °F -16.6 °F 77% 29.93 in 8.0 mi ENE 3.5 mph - N/A   Scattered Clouds
9:53 AM -9.0 °F -18.2 °F -14.1 °F 79% 30.37 in 10.0 mi ENE 3.5 mph - N/A   Clear
10:53 AM -11.0 °F -22.8 °F -16.1 °F 78% 30.39 in 10.0 mi East 4.6 mph - N/A   Scattered Clouds
11:53 AM -6.0 °F -16.9 °F -13.0 °F 72% 30.34 in 10.0 mi East 4.6 mph - N/A   Partly Cloudy
12:53 PM -2.9 °F - -9.9 °F 72% 30.29 in 10.0 mi Calm Calm - N/A   Clear
1:53 PM -2.0 °F -12.2 °F -11.0 °F 66% 30.30 in 10.0 mi ENE 4.6 mph - N/A   Clear
2:53 PM -0.4 °F -8.3 °F -9.4 °F 66% 29.93 in 10.0 mi ENE 3.5 mph - N/A   Clear
3:53 PM -2.0 °F - -9.9 °F 69% 30.33 in 10.0 mi Calm Calm - N/A   Clear
4:53 PM -2.9 °F - -11.9 °F 65% 30.35 in 10.0 mi Calm Calm - N/A   Clear
5:53 PM -9.9 °F -19.2 °F -13.0 °F 86% 30.37 in 10.0 mi East 3.5 mph - N/A   Clear
6:53 PM -15.0 °F -27.4 °F -18.0 °F 86% 30.43 in 10.0 mi ENE 4.6 mph - N/A   Clear
7:53 PM -25.1 °F -44.7 °F -27.0 °F 90% 30.50 in 10.0 mi NE 8.1 mph - N/A   Clear
8:53 PM -22.0 °F - -26.0 °F 82% 30.48 in 10.0 mi Calm Calm - N/A   Overcast
9:53 PM -24.0 °F - -29.0 °F 77% 30.46 in 10.0 mi Calm Calm - N/A   Clear
10:53 PM -27.4 °F -44.1 °F -31.0 °F 83% 29.98 in 10.0 mi ENE 5.8 mph - N/A   Clear
11:53 PM -25.1 °F - -29.9 °F 78% 30.46 in 10.0 mi Calm Calm - N/A   Clear